Regional Weather Roundup
Issued by NWS

Home | Current Version | Previous Version | Graphics & Text | Print | Product List | Glossary On
Versions: 1 2 3 4 5 6 7 8 9 10 11 12 13 14 15 16 17 18 19 20 21 22 23 24 25 26 27 28 29 30 31 32 33 34 35 36 37 38 39 40 41 42 43 44 45 46 47 48 49 50
000
ASUS43 KLSX 172159
RWRMO

WEATHER SUMMARY FOR MISSOURI
NATIONAL WEATHER SERVICE SPRINGFIELD MO
400 PM CST WED DEC 17 2014

NOTE: "FAIR" INDICATES FEW OR NO CLOUDS BELOW 12,000 FEET WITH NO
       SIGNIFICANT WEATHER AND/OR OBSTRUCTIONS TO VISIBILITY.
       CURRENT SKY AND/OR WEATHER CONDITIONS ARE NOT AVAILABLE FOR
       CHILLICOTHE AND FARMINGTON.

MOZ001>031-035>038-043-044-053-054-172300-
...NORTHERN AND WESTERN MISSOURI...

CITY           SKY/WX    TMP DP  RH WIND       PRES   REMARKS
KANSAS CTY INT CLOUDY    29  21  72 E6        30.25S WCI  23
KANSAS C DTWN  CLOUDY    32  20  61 NE7       30.25F WCI  26
LEE`S SUMMIT   CLOUDY    31  20  63 E6        30.25S WCI  25
ST JOSEPH      CLOUDY    30  19  63 E6        30.28R WCI  24
CHILLICOTHE      N/A     30  21  69 NE6       30.29S WCI  24
KIRKSVILLE     CLEAR     32  20  61 CALM      30.27F

$$
MOZ066>068-077>081-088>096-101>105-172300-
...SOUTHWEST MISSOURI...

CITY           SKY/WX    TMP DP  RH WIND       PRES   REMARKS
SPRINGFIELD    LGT RAIN  33  28  81 NE5       30.22R WCI  29
JOPLIN         LGTSLEET  34  28  79 VRB5      30.22S WCI  30

$$
MOZ032>034-039>042-045>050-055>058-069>072-172300-
...CENTRAL MISSOURI...

CITY           SKY/WX    TMP DP  RH WIND       PRES   REMARKS
COLUMBIA       CLOUDY    33  23  66 CALM      30.26S
JEFFERSON CITY CLOUDY    35  22  58 N3        30.27F
ROLLA          CLOUDY    34  21  59 MISG      30.23F
SEDALIA        CLOUDY    32  24  72 N6        30.26F WCI  26
WARRENSBURG    CLOUDY    32  23  69 NE6       30.25F WCI  26
OSAGE BEACH    CLOUDY    36  21  55 NE5       30.25F

$$
MOZ051-052-059>065-172300-
...EAST CENTRAL MISSOURI...

CITY           SKY/WX    TMP DP  RH WIND       PRES   REMARKS
ST LOUIS INTL  MOCLDY    36  25  64 N6        30.29R
SPIRIT OF STL  MOCLDY   N/A N/A N/A N6        30.28R
ST CHARLES     PTCLDY    35  25  66 NW5       30.30

$$
MOZ072>076-082>087-097>100-106>115-172300-
...SOUTH CENTRAL AND SOUTHEAST MISSOURI...

CITY           SKY/WX    TMP DP  RH WIND       PRES   REMARKS
CAPE GIRARDEAU PTCLDY    38  29  70 W3        30.29R
FARMINGTON     CLOUDY    39  21  48 CALM      30.27R
POPLAR BLUFF   PTCLDY    38  26  62 S6        30.28S
WEST PLAINS    CLOUDY    39  25  57 SW5       30.24R

$$


USA.gov is the U.S. government's official web portal to all federal, state and local government web resources and services.